Overview Statistics Trail Chart Weather Telemetry Raw packets
 

This is the latest recevied weather packets stored in our database for station/object PP5CFL-2. If no packets are shown the sender has not sent any weather packets the latest 10 day(s).

<< 1 2 3 4 5 6 >>
Time Temp. Humidity Pressure Rain* Wind** Luminosity Snow
1788661622 16.11° C 69% 1022.3 hPa - - - -
1788661320 16.11° C 68% 1022.2 hPa - - - -
1788661020 16.11° C 66% 1022.2 hPa - - - -
1788660722 16.11° C 67% 1022.2 hPa - - - -
1788660420 16.11° C 67% 1022 hPa - - - -
1788660120 16.11° C 64% 1022 hPa - - - -
1788659820 16.11° C 65% 1022 hPa - - - -
1788659520 16.11° C 65% 1021.9 hPa - - - -
1788659220 16.11° C 64% 1021.9 hPa - - - -
1788658923 16.11° C 68% 1021.8 hPa - - - -
1788658620 16.11° C 64% 1021.8 hPa - - - -
1788658320 16.67° C 65% 1021.6 hPa - - - -
1788658020 16.67° C 66% 1021.6 hPa - - - -
1788657720 16.67° C 65% 1021.7 hPa - - - -
1788657420 16.67° C 65% 1021.7 hPa - - - -
1788657120 16.67° C 67% 1021.6 hPa - - - -
1788656820 16.67° C 66% 1021.5 hPa - - - -
1788656520 16.67° C 67% 1021.5 hPa - - - -
1788656223 16.67° C 66% 1021.4 hPa - - - -
1788655922 16.67° C 67% 1021.4 hPa - - - -
1788655620 16.67° C 67% 1021.5 hPa - - - -
1788655322 16.67° C 66% 1021.5 hPa - - - -
1788655020 16.67° C 67% 1021.5 hPa - - - -
1788654720 16.67° C 67% 1021.5 hPa - - - -
1788654420 16.67° C 67% 1021.5 hPa - - - -

* Rain since midnight (hover to see other rain measurements)
** Current wind speed in m/s (hover to see current wind gust speed)